Location: Antichan
(42.9728°N, 0.6667°E)
Time: 18:14:38
(UTC+00:00)

Cosmos 1459 Rocket - Pass Details

Date: 15 August 2020
Orbit: 937 x 1000 km, 83.0° (Epoch: 18 September)

Event Time Altitude Azimuth Distance (km) Brightness Sun altitude
Exits shadow 21:53:46 40° 208° (SSW) 1,432 4.6 -26.2°
Maximum altitude 21:56:10 70° 279° (W) 1,055 4.2 -26.5°
Drops below altitude 10° 22:02:33 10° 3° (N) 2,778 7.0 -27.1°
Sets 22:05:07 0° 6° (N) 3,733 7.8 -27.4°
